date,time,SUV Intensity [MED/Hr],UV Index,Daily total [MED],Since Last [MED]
15/09/2023,00:01:18,-0.000,0.0,0.0,0.0
15/09/2023,00:02:18,0.000,0.0,0.0,0.0
15/09/2023,00:03:17,0.000,0.0,0.0,0.0
15/09/2023,00:04:18,0.000,0.0,0.0,0.0
15/09/2023,00:05:18,0.001,0.0,0.0,0.0
15/09/2023,00:06:18,-0.000,0.0,0.0,0.0
15/09/2023,00:07:17,0.000,0.0,0.0,0.0
15/09/2023,00:08:18,0.000,0.0,0.0,0.0
15/09/2023,00:09:18,0.000,0.0,0.0,0.0
15/09/2023,00:10:17,0.000,0.0,0.0,0.0
15/09/2023,00:11:18,0.000,0.0,0.0,0.0
15/09/2023,00:12:18,-0.000,0.0,0.0,0.0
15/09/2023,00:13:17,0.000,0.0,0.0,0.0
15/09/2023,00:14:18,0.000,0.0,0.0,0.0
15/09/2023,00:15:18,0.000,0.0,0.0,0.0
15/09/2023,00:16:18,-0.000,0.0,0.0,0.0
15/09/2023,00:17:18,0.000,0.0,0.0,0.0
15/09/2023,00:18:18,0.000,0.0,0.0,0.0
15/09/2023,00:19:18,0.000,0.0,0.0,0.0
15/09/2023,00:20:18,-0.000,0.0,0.0,0.0
15/09/2023,00:21:18,-0.000,0.0,0.0,0.0
15/09/2023,00:22:16,0.000,0.0,0.0,0.0
15/09/2023,00:23:16,0.000,0.0,0.0,0.0
15/09/2023,00:24:18,0.000,0.0,0.0,0.0
15/09/2023,00:25:18,-0.001,0.0,0.0,0.0
15/09/2023,00:26:18,0.000,0.0,0.0,0.0
15/09/2023,00:27:18,0.000,0.0,0.0,0.0
15/09/2023,00:28:18,-0.000,0.0,0.0,0.0
15/09/2023,00:29:18,0.000,0.0,0.0,0.0
15/09/2023,00:30:18,0.001,0.0,0.0,0.0
15/09/2023,00:31:18,-0.000,0.0,0.0,0.0
15/09/2023,00:32:18,-0.000,0.0,0.0,0.0
15/09/2023,00:33:17,0.000,0.0,0.0,0.0
15/09/2023,00:34:18,0.000,0.0,0.0,0.0
15/09/2023,00:35:18,-0.000,0.0,0.0,0.0
15/09/2023,00:36:18,0.000,0.0,0.0,0.0
15/09/2023,00:37:17,0.000,0.0,0.0,0.0
15/09/2023,00:38:18,0.001,0.0,0.0,0.0
15/09/2023,00:39:18,0.000,0.0,0.0,0.0
15/09/2023,00:40:18,0.001,0.0,0.0,0.0
15/09/2023,00:41:18,0.000,0.0,0.0,0.0
15/09/2023,00:42:18,0.000,0.0,0.0,0.0
15/09/2023,00:43:18,0.000,0.0,0.0,0.0
15/09/2023,00:44:17,0.000,0.0,0.0,0.0
15/09/2023,00:45:18,0.000,0.0,0.0,0.0
15/09/2023,00:46:18,0.001,0.0,0.0,0.0
15/09/2023,00:47:18,0.000,0.0,0.0,0.0
15/09/2023,00:48:18,0.000,0.0,0.0,0.0
15/09/2023,00:49:17,0.002,0.0,0.0,0.0
15/09/2023,00:50:17,0.000,0.0,0.0,0.0
15/09/2023,00:51:18,0.000,0.0,0.0,0.0
15/09/2023,00:52:18,-0.000,0.0,0.0,0.0
15/09/2023,00:53:17,0.000,0.0,0.0,0.0
15/09/2023,00:54:18,0.001,0.0,0.0,0.0
15/09/2023,00:55:18,-0.000,0.0,0.0,0.0
15/09/2023,00:56:18,0.000,0.0,0.0,0.0
15/09/2023,00:57:18,0.000,0.0,0.0,0.0
15/09/2023,00:58:18,0.000,0.0,0.0,0.0
15/09/2023,00:59:18,0.000,0.0,0.0,0.0
15/09/2023,01:00:18,0.000,0.0,0.0,0.0
15/09/2023,01:01:17,0.001,0.0,0.0,0.0
15/09/2023,01:02:17,0.000,0.0,0.0,0.0
15/09/2023,01:03:16,0.000,0.0,0.0,0.0
15/09/2023,01:04:16,0.000,0.0,0.0,0.0
15/09/2023,01:05:18,0.000,0.0,0.0,0.0
15/09/2023,01:06:18,-0.000,0.0,0.0,0.0
15/09/2023,01:07:18,0.001,0.0,0.0,0.0
15/09/2023,01:08:18,0.001,0.0,0.0,0.0
15/09/2023,01:09:17,0.001,0.0,0.0,0.0
15/09/2023,01:10:18,0.002,0.0,0.0,0.0
15/09/2023,01:11:18,0.001,0.0,0.0,0.0
15/09/2023,01:12:18,-0.000,0.0,0.0,0.0
15/09/2023,01:13:18,0.001,0.0,0.0,0.0
15/09/2023,01:14:18,0.001,0.0,0.0,0.0
15/09/2023,01:15:18,0.000,0.0,0.0,0.0
15/09/2023,01:16:18,0.000,0.0,0.0,0.0
15/09/2023,01:17:17,0.001,0.0,0.0,0.0
15/09/2023,01:18:18,0.000,0.0,0.0,0.0
15/09/2023,01:19:18,0.000,0.0,0.0,0.0
15/09/2023,01:20:18,0.000,0.0,0.0,0.0
15/09/2023,01:21:18,0.001,0.0,0.0,0.0
15/09/2023,01:22:18,0.001,0.0,0.0,0.0
15/09/2023,01:23:18,-0.000,0.0,0.0,0.0
15/09/2023,01:24:18,0.000,0.0,0.0,0.0
15/09/2023,01:25:18,0.001,0.0,0.0,0.0
15/09/2023,01:26:18,0.001,0.0,0.0,0.0
15/09/2023,01:27:18,0.001,0.0,0.0,0.0
15/09/2023,01:28:17,-0.000,0.0,0.0,0.0
15/09/2023,01:29:18,0.001,0.0,0.0,0.0
15/09/2023,01:30:18,0.001,0.0,0.0,0.0
15/09/2023,01:31:18,0.001,0.0,0.0,0.0
15/09/2023,01:32:18,0.001,0.0,0.0,0.0
15/09/2023,01:33:18,0.001,0.0,0.0,0.0
15/09/2023,01:34:18,0.001,0.0,0.0,0.0
15/09/2023,01:35:18,0.000,0.0,0.0,0.0
15/09/2023,01:36:17,0.001,0.0,0.0,0.0
15/09/2023,01:37:18,0.001,0.0,0.0,0.0
15/09/2023,01:38:16,0.001,0.0,0.0,0.0
15/09/2023,01:39:16,0.001,0.0,0.0,0.0
15/09/2023,01:40:18,0.000,0.0,0.0,0.0
15/09/2023,01:41:18,0.000,0.0,0.0,0.0
15/09/2023,01:42:18,0.001,0.0,0.0,0.0
15/09/2023,01:43:18,0.001,0.0,0.0,0.0
15/09/2023,01:44:18,0.000,0.0,0.0,0.0
15/09/2023,01:45:17,0.001,0.0,0.0,0.0
15/09/2023,01:46:18,0.001,0.0,0.0,0.0
15/09/2023,01:47:18,0.001,0.0,0.0,0.0
15/09/2023,01:48:17,0.001,0.0,0.0,0.0
15/09/2023,01:49:18,-0.000,0.0,0.0,0.0
15/09/2023,01:50:18,-0.000,0.0,0.0,0.0
15/09/2023,01:51:18,0.002,0.0,0.0,0.0
15/09/2023,01:52:18,0.001,0.0,0.0,0.0
15/09/2023,01:53:18,0.001,0.0,0.0,0.0
15/09/2023,01:54:18,0.000,0.0,0.0,0.0
15/09/2023,01:55:18,0.001,0.0,0.0,0.0
15/09/2023,01:56:18,0.001,0.0,0.0,0.0
15/09/2023,01:57:18,0.001,0.0,0.0,0.0
15/09/2023,01:58:19,0.001,0.0,0.0,0.0
15/09/2023,01:59:18,0.001,0.0,0.0,0.0
15/09/2023,02:00:18,0.001,0.0,0.0,0.0
15/09/2023,02:01:18,-0.000,0.0,0.0,0.0
15/09/2023,02:02:18,0.001,0.0,0.0,0.0
15/09/2023,02:03:16,0.001,0.0,0.0,0.0
15/09/2023,02:04:16,0.001,0.0,0.0,0.0
15/09/2023,02:05:18,0.001,0.0,0.0,0.0
15/09/2023,02:06:18,0.001,0.0,0.0,0.0
15/09/2023,02:07:16,0.001,0.0,0.0,0.0
15/09/2023,02:08:16,0.002,0.0,0.0,0.0
15/09/2023,02:09:18,0.001,0.0,0.0,0.0
15/09/2023,02:10:18,0.000,0.0,0.0,0.0
15/09/2023,02:11:18,0.001,0.0,0.0,0.0
15/09/2023,02:12:18,-0.000,0.0,0.0,0.0
15/09/2023,02:13:18,0.001,0.0,0.0,0.0
15/09/2023,02:14:18,0.001,0.0,0.0,0.0
15/09/2023,02:15:18,-0.000,0.0,0.0,0.0
15/09/2023,02:16:18,0.000,0.0,0.0,0.0
15/09/2023,02:17:18,-0.000,0.0,0.0,0.0
15/09/2023,02:18:18,0.002,0.0,0.0,0.0
15/09/2023,02:19:18,-0.000,0.0,0.0,0.0
15/09/2023,02:20:18,0.001,0.0,0.0,0.0
15/09/2023,02:21:18,0.000,0.0,0.0,0.0
15/09/2023,02:22:18,0.001,0.0,0.0,0.0
15/09/2023,02:23:18,0.002,0.0,0.0,0.0
15/09/2023,02:24:18,0.001,0.0,0.0,0.0
15/09/2023,02:25:18,0.001,0.0,0.0,0.0
15/09/2023,02:26:18,0.001,0.0,0.0,0.0
15/09/2023,02:27:18,0.001,0.0,0.0,0.0
15/09/2023,02:28:18,0.001,0.0,0.0,0.0
15/09/2023,02:29:18,-0.000,0.0,0.0,0.0
15/09/2023,02:30:18,0.002,0.0,0.0,0.0
15/09/2023,02:31:18,0.001,0.0,0.0,0.0
15/09/2023,02:32:18,0.000,0.0,0.0,0.0
15/09/2023,02:33:18,0.001,0.0,0.0,0.0
15/09/2023,02:34:18,0.000,0.0,0.0,0.0
15/09/2023,02:35:16,0.000,0.0,0.0,0.0
15/09/2023,02:36:16,0.001,0.0,0.0,0.0
15/09/2023,02:37:18,0.001,0.0,0.0,0.0
15/09/2023,02:38:18,0.001,0.0,0.0,0.0
15/09/2023,02:39:18,0.000,0.0,0.0,0.0
15/09/2023,02:40:18,0.001,0.0,0.0,0.0
15/09/2023,02:41:18,0.001,0.0,0.0,0.0
15/09/2023,02:42:18,0.001,0.0,0.0,0.0
15/09/2023,02:43:18,0.001,0.0,0.0,0.0
15/09/2023,02:44:18,-0.000,0.0,0.0,0.0
15/09/2023,02:45:16,0.000,0.0,0.0,0.0
15/09/2023,02:46:16,0.001,0.0,0.0,0.0
15/09/2023,02:47:18,0.001,0.0,0.0,0.0
15/09/2023,02:48:18,0.001,0.0,0.0,0.0
15/09/2023,02:49:18,0.002,0.0,0.0,0.0
15/09/2023,02:50:18,-0.000,0.0,0.0,0.0
15/09/2023,02:51:18,0.001,0.0,0.0,0.0
15/09/2023,02:52:19,0.001,0.0,0.0,0.0
15/09/2023,02:53:18,-0.000,0.0,0.0,0.0
15/09/2023,02:54:18,0.000,0.0,0.0,0.0
15/09/2023,02:55:18,0.001,0.0,0.0,0.0
15/09/2023,02:56:18,0.001,0.0,0.0,0.0
15/09/2023,02:57:18,0.001,0.0,0.0,0.0
15/09/2023,02:58:19,0.001,0.0,0.0,0.0
15/09/2023,02:59:18,0.001,0.0,0.0,0.0
15/09/2023,03:00:18,0.001,0.0,0.0,0.0
15/09/2023,03:01:18,0.001,0.0,0.0,0.0
15/09/2023,03:02:18,0.001,0.0,0.0,0.0
15/09/2023,03:03:18,0.002,0.0,0.0,0.0
15/09/2023,03:04:18,0.001,0.0,0.0,0.0
15/09/2023,03:05:18,0.000,0.0,0.0,0.0
15/09/2023,03:06:18,0.000,0.0,0.0,0.0
15/09/2023,03:07:18,0.001,0.0,0.0,0.0
15/09/2023,03:08:18,0.001,0.0,0.0,0.0
15/09/2023,03:09:18,-0.000,0.0,0.0,0.0
15/09/2023,03:10:18,0.001,0.0,0.0,0.0
15/09/2023,03:11:18,0.000,0.0,0.0,0.0
15/09/2023,03:12:18,0.001,0.0,0.0,0.0
15/09/2023,03:13:18,0.001,0.0,0.0,0.0
15/09/2023,03:14:18,0.001,0.0,0.0,0.0
15/09/2023,03:15:18,0.001,0.0,0.0,0.0
15/09/2023,03:16:18,0.001,0.0,0.0,0.0
15/09/2023,03:17:18,0.001,0.0,0.0,0.0
15/09/2023,03:18:18,0.001,0.0,0.0,0.0
15/09/2023,03:19:18,0.001,0.0,0.0,0.0
15/09/2023,03:20:18,0.001,0.0,0.0,0.0
15/09/2023,03:21:18,0.001,0.0,0.0,0.0
15/09/2023,03:22:18,0.001,0.0,0.0,0.0
15/09/2023,03:23:18,0.000,0.0,0.0,0.0
15/09/2023,03:24:18,0.000,0.0,0.0,0.0
15/09/2023,03:25:18,0.002,0.0,0.0,0.0
15/09/2023,03:26:18,0.001,0.0,0.0,0.0
15/09/2023,03:27:19,0.001,0.0,0.0,0.0
15/09/2023,03:28:18,0.001,0.0,0.0,0.0
15/09/2023,03:29:18,0.001,0.0,0.0,0.0
15/09/2023,03:30:18,0.001,0.0,0.0,0.0
15/09/2023,03:31:18,0.001,0.0,0.0,0.0
15/09/2023,03:32:18,0.001,0.0,0.0,0.0
15/09/2023,03:33:18,0.001,0.0,0.0,0.0
15/09/2023,03:34:16,0.001,0.0,0.0,0.0
15/09/2023,03:35:16,0.000,0.0,0.0,0.0
15/09/2023,03:36:18,0.001,0.0,0.0,0.0
15/09/2023,03:37:18,0.001,0.0,0.0,0.0
15/09/2023,03:38:18,0.002,0.0,0.0,0.0
15/09/2023,03:39:18,0.001,0.0,0.0,0.0
15/09/2023,03:40:18,0.001,0.0,0.0,0.0
15/09/2023,03:41:18,0.002,0.0,0.0,0.0
15/09/2023,03:42:18,0.001,0.0,0.0,0.0
15/09/2023,03:43:18,0.000,0.0,0.0,0.0
15/09/2023,03:44:19,0.001,0.0,0.0,0.0
15/09/2023,03:45:18,0.000,0.0,0.0,0.0
15/09/2023,03:46:18,0.001,0.0,0.0,0.0
15/09/2023,03:47:18,0.001,0.0,0.0,0.0
15/09/2023,03:48:18,-0.000,0.0,0.0,0.0
15/09/2023,03:49:18,0.001,0.0,0.0,0.0
15/09/2023,03:50:19,0.001,0.0,0.0,0.0
15/09/2023,03:51:18,0.001,0.0,0.0,0.0
15/09/2023,03:52:18,0.000,0.0,0.0,0.0
15/09/2023,03:53:18,0.001,0.0,0.0,0.0
15/09/2023,03:54:18,0.000,0.0,0.0,0.0
15/09/2023,03:55:18,0.001,0.0,0.0,0.0
15/09/2023,03:56:18,0.002,0.0,0.0,0.0
15/09/2023,03:57:19,0.001,0.0,0.0,0.0
15/09/2023,03:58:18,0.001,0.0,0.0,0.0
15/09/2023,03:59:18,0.001,0.0,0.0,0.0
15/09/2023,04:00:19,0.001,0.0,0.0,0.0
15/09/2023,04:01:19,0.001,0.0,0.0,0.0
15/09/2023,04:02:18,0.001,0.0,0.0,0.0
15/09/2023,04:03:19,0.001,0.0,0.0,0.0
15/09/2023,04:04:18,0.001,0.0,0.0,0.0
15/09/2023,04:05:18,0.001,0.0,0.0,0.0
15/09/2023,04:06:18,0.001,0.0,0.0,0.0
15/09/2023,04:07:18,0.002,0.0,0.0,0.0
15/09/2023,04:08:18,0.001,0.0,0.0,0.0
15/09/2023,04:09:18,0.001,0.0,0.0,0.0
15/09/2023,04:10:18,0.001,0.0,0.0,0.0
15/09/2023,04:11:18,0.001,0.0,0.0,0.0
15/09/2023,04:12:19,0.001,0.0,0.0,0.0
15/09/2023,04:13:18,0.001,0.0,0.0,0.0
15/09/2023,04:14:18,0.001,0.0,0.0,0.0
15/09/2023,04:15:18,0.000,0.0,0.0,0.0
15/09/2023,04:16:18,0.001,0.0,0.0,0.0
15/09/2023,04:17:19,0.001,0.0,0.0,0.0
15/09/2023,04:18:18,0.001,0.0,0.0,0.0
15/09/2023,04:19:18,0.001,0.0,0.0,0.0
15/09/2023,04:20:18,0.001,0.0,0.0,0.0
15/09/2023,04:21:19,0.000,0.0,0.0,0.0
15/09/2023,04:22:18,0.000,0.0,0.0,0.0
15/09/2023,04:23:18,0.002,0.0,0.0,0.0
15/09/2023,04:24:18,0.001,0.0,0.0,0.0
15/09/2023,04:25:18,0.001,0.0,0.0,0.0
15/09/2023,04:26:19,0.002,0.0,0.0,0.0
15/09/2023,04:27:18,0.001,0.0,0.0,0.0
15/09/2023,04:28:18,0.002,0.0,0.0,0.0
15/09/2023,04:29:18,0.000,0.0,0.0,0.0
15/09/2023,04:30:18,0.001,0.0,0.0,0.0
15/09/2023,04:31:18,0.001,0.0,0.0,0.0
15/09/2023,04:32:18,0.001,0.0,0.0,0.0
15/09/2023,04:33:18,0.002,0.0,0.0,0.0
15/09/2023,04:34:18,0.001,0.0,0.0,0.0
15/09/2023,04:35:18,0.001,0.0,0.0,0.0
15/09/2023,04:36:16,0.001,0.0,0.0,0.0
15/09/2023,04:37:16,0.001,0.0,0.0,0.0
15/09/2023,04:38:18,0.001,0.0,0.0,0.0
15/09/2023,04:39:18,0.001,0.0,0.0,0.0
15/09/2023,04:40:18,0.002,0.0,0.0,0.0
15/09/2023,04:41:18,0.002,0.0,0.0,0.0
15/09/2023,04:42:18,0.001,0.0,0.0,0.0
15/09/2023,04:43:19,0.000,0.0,0.0,0.0
15/09/2023,04:44:18,0.001,0.0,0.0,0.0
15/09/2023,04:45:19,0.001,0.0,0.0,0.0
15/09/2023,04:46:18,0.001,0.0,0.0,0.0
15/09/2023,04:47:18,0.001,0.0,0.0,0.0
15/09/2023,04:48:19,0.002,0.0,0.0,0.0
15/09/2023,04:49:18,0.002,0.0,0.0,0.0
15/09/2023,04:50:18,0.001,0.0,0.0,0.0
15/09/2023,04:51:18,0.001,0.0,0.0,0.0
15/09/2023,04:52:18,0.000,0.0,0.0,0.0
15/09/2023,04:53:18,0.003,0.0,0.0,0.0
15/09/2023,04:54:18,0.001,0.0,0.0,0.0
15/09/2023,04:55:18,0.001,0.0,0.0,0.0
15/09/2023,04:56:18,0.002,0.0,0.0,0.0
15/09/2023,04:57:18,0.001,0.0,0.0,0.0
15/09/2023,04:58:16,0.001,0.0,0.0,0.0
15/09/2023,04:59:17,0.000,0.0,0.0,0.0
15/09/2023,05:00:18,0.001,0.0,0.0,0.0
15/09/2023,05:01:19,0.002,0.0,0.0,0.0
15/09/2023,05:02:18,0.001,0.0,0.0,0.0
15/09/2023,05:03:18,0.001,0.0,0.0,0.0
15/09/2023,05:04:17,0.001,0.0,0.0,0.0
15/09/2023,05:05:16,0.001,0.0,0.0,0.0
15/09/2023,05:06:18,0.000,0.0,0.0,0.0
15/09/2023,05:07:18,0.001,0.0,0.0,0.0
15/09/2023,05:08:18,0.001,0.0,0.0,0.0
15/09/2023,05:09:18,0.001,0.0,0.0,0.0
15/09/2023,05:10:18,0.000,0.0,0.0,0.0
15/09/2023,05:11:16,0.000,0.0,0.0,0.0
15/09/2023,05:12:17,0.002,0.0,0.0,0.0
15/09/2023,05:13:18,0.001,0.0,0.0,0.0
15/09/2023,05:14:18,0.001,0.0,0.0,0.0
15/09/2023,05:15:18,0.001,0.0,0.0,0.0
15/09/2023,05:16:16,0.001,0.0,0.0,0.0
15/09/2023,05:17:16,0.002,0.0,0.0,0.0
15/09/2023,05:18:19,0.002,0.0,0.0,0.0
15/09/2023,05:19:18,0.001,0.0,0.0,0.0
15/09/2023,05:20:18,0.002,0.0,0.0,0.0
15/09/2023,05:21:18,0.002,0.0,0.0,0.0
15/09/2023,05:22:18,0.003,0.0,0.0,0.0
15/09/2023,05:23:19,0.002,0.0,0.0,0.0
15/09/2023,05:24:18,0.002,0.0,0.0,0.0
15/09/2023,05:25:19,0.002,0.0,0.0,0.0
15/09/2023,05:26:18,0.002,0.0,0.0,0.0
15/09/2023,05:27:18,0.002,0.0,0.0,0.0
15/09/2023,05:28:18,0.002,0.0,0.0,0.0
15/09/2023,05:29:18,0.002,0.0,0.0,0.0
15/09/2023,05:30:18,0.002,0.0,0.0,0.0
15/09/2023,05:31:19,0.003,0.0,0.0,0.0
15/09/2023,05:32:18,0.003,0.0,0.0,0.0
15/09/2023,05:33:18,0.003,0.0,0.0,0.0
15/09/2023,05:34:18,0.003,0.0,0.0,0.0
15/09/2023,05:35:18,0.003,0.0,0.0,0.0
15/09/2023,05:36:18,0.003,0.0,0.0,0.0
15/09/2023,05:37:18,0.004,0.0,0.0,0.0
15/09/2023,05:38:18,0.004,0.0,0.0,0.0
15/09/2023,05:39:18,0.004,0.0,0.0,0.0
15/09/2023,05:40:18,0.003,0.0,0.0,0.0
15/09/2023,05:41:18,0.004,0.0,0.0,0.0
15/09/2023,05:42:18,0.004,0.0,0.0,0.0
15/09/2023,05:43:19,0.004,0.0,0.0,0.0
15/09/2023,05:44:18,0.005,0.0,0.0,0.0
15/09/2023,05:45:18,0.005,0.0,0.0,0.0
15/09/2023,05:46:19,0.005,0.0,0.0,0.0
15/09/2023,05:47:18,0.006,0.0,0.0,0.0
15/09/2023,05:48:18,0.006,0.0,0.0,0.0
15/09/2023,05:49:18,0.007,0.0,0.0,0.0
15/09/2023,05:50:18,0.007,0.0,0.0,0.0
15/09/2023,05:51:18,0.007,0.0,0.0,0.0
15/09/2023,05:52:18,0.008,0.0,0.0,0.0
15/09/2023,05:53:18,0.008,0.0,0.001,0.001
15/09/2023,05:54:18,0.008,0.0,0.001,0.0
15/09/2023,05:55:18,0.009,0.0,0.001,0.0
15/09/2023,05:56:18,0.009,0.0,0.001,0.0
15/09/2023,05:57:18,0.010,0.0,0.001,0.0
15/09/2023,05:58:19,0.009,0.0,0.001,0.0
15/09/2023,05:59:18,0.011,0.0,0.002,0.001
15/09/2023,06:00:18,0.010,0.0,0.002,0.0
15/09/2023,06:01:19,0.012,0.0,0.002,0.0
15/09/2023,06:02:18,0.012,0.0,0.002,0.0
15/09/2023,06:03:18,0.013,0.0,0.002,0.0
15/09/2023,06:04:19,0.013,0.0,0.003,0.001
15/09/2023,06:05:18,0.014,0.0,0.003,0.0
15/09/2023,06:06:18,0.014,0.0,0.003,0.0
15/09/2023,06:07:18,0.015,0.0,0.003,0.0
15/09/2023,06:08:19,0.016,0.0,0.003,0.0
15/09/2023,06:09:18,0.016,0.0,0.004,0.001
15/09/2023,06:10:18,0.017,0.0,0.004,0.0
15/09/2023,06:11:19,0.018,0.0,0.004,0.0
15/09/2023,06:12:18,0.019,0.0,0.005,0.001
15/09/2023,06:13:18,0.019,0.0,0.005,0.0
15/09/2023,06:14:19,0.020,0.0,0.005,0.0
15/09/2023,06:15:18,0.021,0.0,0.006,0.001
15/09/2023,06:16:18,0.022,0.0,0.006,0.0
15/09/2023,06:17:19,0.023,0.0,0.006,0.0
15/09/2023,06:18:18,0.023,0.0,0.007,0.001
15/09/2023,06:19:18,0.024,0.0,0.007,0.0
15/09/2023,06:20:18,0.025,0.0,0.008,0.001
15/09/2023,06:21:18,0.025,0.0,0.008,0.0
15/09/2023,06:22:18,0.027,0.0,0.008,0.0
15/09/2023,06:23:19,0.029,0.0,0.009,0.001
15/09/2023,06:24:18,0.029,0.0,0.009,0.0
15/09/2023,06:25:18,0.030,0.0,0.01,0.001
15/09/2023,06:26:18,0.031,0.0,0.01,0.0
15/09/2023,06:27:18,0.033,0.0,0.011,0.001
15/09/2023,06:28:18,0.033,0.0,0.011,0.0
15/09/2023,06:29:19,0.035,0.0,0.012,0.001
15/09/2023,06:30:18,0.034,0.0,0.013,0.001
15/09/2023,06:31:18,0.037,0.0,0.013,0.0
15/09/2023,06:32:18,0.038,0.0,0.014,0.001
15/09/2023,06:33:18,0.039,0.0,0.014,0.0
15/09/2023,06:34:18,0.041,0.0,0.015,0.001
15/09/2023,06:35:19,0.042,0.0,0.016,0.001
15/09/2023,06:36:18,0.042,0.0,0.016,0.0
15/09/2023,06:37:18,0.043,0.0,0.017,0.001
15/09/2023,06:38:19,0.046,0.0,0.018,0.001
15/09/2023,06:39:18,0.046,0.0,0.019,0.001
15/09/2023,06:40:19,0.050,0.0,0.019,0.0
15/09/2023,06:41:18,0.050,0.0,0.02,0.001
15/09/2023,06:42:18,0.051,0.0,0.021,0.001
15/09/2023,06:43:19,0.053,0.0,0.022,0.001
15/09/2023,06:44:18,0.054,0.0,0.023,0.001
15/09/2023,06:45:18,0.056,0.0,0.024,0.001
15/09/2023,06:46:19,0.058,0.0,0.025,0.001
15/09/2023,06:47:18,0.059,0.0,0.026,0.001
15/09/2023,06:48:18,0.060,0.0,0.027,0.001
15/09/2023,06:49:18,0.063,0.0,0.028,0.001
15/09/2023,06:50:18,0.063,0.0,0.029,0.001
15/09/2023,06:51:18,0.066,0.0,0.03,0.001
15/09/2023,06:52:19,0.067,0.0,0.031,0.001
15/09/2023,06:53:19,0.069,0.0,0.032,0.001
15/09/2023,06:54:19,0.070,0.0,0.033,0.001
15/09/2023,06:55:19,0.072,0.0,0.034,0.001
15/09/2023,06:56:19,0.074,0.0,0.036,0.002
15/09/2023,06:57:18,0.076,0.0,0.037,0.001
15/09/2023,06:58:18,0.078,0.0,0.038,0.001
15/09/2023,06:59:19,0.080,0.0,0.04,0.002
15/09/2023,07:00:18,0.083,0.0,0.041,0.001
15/09/2023,07:01:19,0.085,0.0,0.042,0.001
15/09/2023,07:02:19,0.088,0.0,0.044,0.002
15/09/2023,07:03:19,0.089,0.0,0.045,0.001
15/09/2023,07:04:18,0.091,0.0,0.047,0.002
15/09/2023,07:05:19,0.094,0.0,0.048,0.001
15/09/2023,07:06:18,0.097,0.0,0.05,0.002
15/09/2023,07:07:18,0.098,0.0,0.051,0.001
15/09/2023,07:08:18,0.101,0.0,0.053,0.002
15/09/2023,07:09:18,0.102,0.0,0.055,0.002
15/09/2023,07:10:18,0.106,0.0,0.057,0.002
15/09/2023,07:11:18,0.108,0.0,0.058,0.001
15/09/2023,07:12:19,0.111,0.0,0.06,0.002
15/09/2023,07:13:18,0.113,0.0,0.062,0.002
15/09/2023,07:14:19,0.116,0.0,0.064,0.002
15/09/2023,07:15:18,0.118,0.0,0.066,0.002
15/09/2023,07:16:19,0.121,0.0,0.068,0.002
15/09/2023,07:17:18,0.124,0.0,0.07,0.002
15/09/2023,07:18:18,0.128,0.0,0.072,0.002
15/09/2023,07:19:17,0.130,0.0,0.074,0.002
15/09/2023,07:20:17,0.132,0.0,0.076,0.002
15/09/2023,07:21:18,0.135,0.0,0.079,0.003
15/09/2023,07:22:18,0.138,0.0,0.081,0.002
15/09/2023,07:23:17,0.142,0.0,0.083,0.002
15/09/2023,07:24:16,0.143,0.0,0.085,0.002
15/09/2023,07:25:18,0.147,0.0,0.088,0.003
15/09/2023,07:26:19,0.150,0.0,0.09,0.002
15/09/2023,07:27:18,0.153,0.0,0.093,0.003
15/09/2023,07:28:18,0.156,0.0,0.096,0.003
15/09/2023,07:29:19,0.159,0.0,0.098,0.002
15/09/2023,07:30:18,0.163,0.0,0.101,0.003
15/09/2023,07:31:18,0.166,0.0,0.104,0.003
15/09/2023,07:32:18,0.169,0.0,0.106,0.002
15/09/2023,07:33:18,0.172,0.0,0.109,0.003
15/09/2023,07:34:19,0.176,0.0,0.112,0.003
15/09/2023,07:35:18,0.180,0.0,0.115,0.003
15/09/2023,07:36:18,0.182,0.0,0.118,0.003
15/09/2023,07:37:19,0.185,0.0,0.121,0.003
15/09/2023,07:38:18,0.190,0.0,0.124,0.003
15/09/2023,07:39:18,0.194,0.0,0.127,0.003
15/09/2023,07:40:18,0.197,0.0,0.131,0.004
15/09/2023,07:41:18,0.199,0.0,0.134,0.003
15/09/2023,07:42:18,0.203,0.0,0.137,0.003
15/09/2023,07:43:19,0.206,0.0,0.141,0.004
15/09/2023,07:44:18,0.209,0.0,0.144,0.003
15/09/2023,07:45:18,0.214,0.0,0.148,0.004
15/09/2023,07:46:19,0.218,1.0,0.151,0.003
15/09/2023,07:47:18,0.220,1.0,0.155,0.004
15/09/2023,07:48:19,0.225,1.0,0.159,0.004
15/09/2023,07:49:19,0.229,1.0,0.163,0.004
15/09/2023,07:50:19,0.234,1.0,0.166,0.003
15/09/2023,07:51:18,0.238,1.0,0.17,0.004
15/09/2023,07:52:18,0.243,1.0,0.174,0.004
15/09/2023,07:53:19,0.248,1.0,0.179,0.005
15/09/2023,07:54:18,0.252,1.0,0.183,0.004
15/09/2023,07:55:18,0.257,1.0,0.187,0.004
15/09/2023,07:56:19,0.261,1.0,0.191,0.004
15/09/2023,07:57:18,0.265,1.0,0.196,0.005
15/09/2023,07:58:18,0.270,1.0,0.2,0.004
15/09/2023,07:59:19,0.274,1.0,0.205,0.005
15/09/2023,08:00:18,0.278,1.0,0.209,0.004
15/09/2023,08:01:18,0.284,1.0,0.214,0.005
15/09/2023,08:02:18,0.288,1.0,0.219,0.005
15/09/2023,08:03:18,0.290,1.0,0.223,0.004
15/09/2023,08:04:19,0.297,1.0,0.228,0.005
15/09/2023,08:05:18,0.301,1.0,0.233,0.005
15/09/2023,08:06:19,0.306,1.0,0.238,0.005
15/09/2023,08:07:18,0.311,1.0,0.244,0.006
15/09/2023,08:08:19,0.315,1.0,0.249,0.005
15/09/2023,08:09:18,0.321,1.0,0.254,0.005
15/09/2023,08:10:19,0.325,1.0,0.259,0.005
15/09/2023,08:11:18,0.329,1.0,0.265,0.006
15/09/2023,08:12:19,0.334,1.0,0.27,0.005
15/09/2023,08:13:18,0.338,1.0,0.276,0.006
15/09/2023,08:14:18,0.344,1.0,0.282,0.006
15/09/2023,08:15:19,0.349,1.0,0.288,0.006
15/09/2023,08:16:19,0.355,1.0,0.293,0.005
15/09/2023,08:17:19,0.360,1.0,0.299,0.006
15/09/2023,08:18:18,0.365,1.0,0.305,0.006
15/09/2023,08:19:19,0.371,1.0,0.312,0.007
15/09/2023,08:20:19,0.373,1.0,0.318,0.006
15/09/2023,08:21:19,0.381,1.0,0.324,0.006
15/09/2023,08:22:18,0.384,1.0,0.33,0.006
15/09/2023,08:23:18,0.388,1.0,0.337,0.007
15/09/2023,08:24:19,0.394,1.0,0.343,0.006
15/09/2023,08:25:19,0.400,1.0,0.35,0.007
15/09/2023,08:26:19,0.406,1.0,0.357,0.007
15/09/2023,08:27:19,0.411,1.0,0.363,0.006
15/09/2023,08:28:18,0.415,1.0,0.37,0.007
15/09/2023,08:29:19,0.418,1.0,0.377,0.007
15/09/2023,08:30:19,0.422,1.0,0.384,0.007
15/09/2023,08:31:18,0.426,1.0,0.391,0.007
15/09/2023,08:32:19,0.434,1.0,0.399,0.008
15/09/2023,08:33:18,0.440,1.0,0.406,0.007
15/09/2023,08:34:18,0.445,1.0,0.413,0.007
15/09/2023,08:35:19,0.450,1.0,0.421,0.008
15/09/2023,08:36:19,0.456,1.0,0.428,0.007
15/09/2023,08:37:19,0.464,1.0,0.436,0.008
15/09/2023,08:38:19,0.468,1.0,0.444,0.008
15/09/2023,08:39:19,0.475,1.0,0.451,0.007
15/09/2023,08:40:19,0.481,1.0,0.459,0.008
15/09/2023,08:41:18,0.484,1.0,0.467,0.008
15/09/2023,08:42:18,0.493,1.0,0.476,0.009
15/09/2023,08:43:19,0.496,1.0,0.484,0.008
15/09/2023,08:44:19,0.504,1.0,0.492,0.008
15/09/2023,08:45:19,0.510,1.0,0.501,0.009
15/09/2023,08:46:19,0.516,1.0,0.509,0.008
15/09/2023,08:47:19,0.522,1.0,0.518,0.009
15/09/2023,08:48:19,0.523,1.0,0.527,0.009
15/09/2023,08:49:19,0.530,1.0,0.535,0.008
15/09/2023,08:50:19,0.535,1.0,0.544,0.009
15/09/2023,08:51:19,0.539,1.0,0.553,0.009
15/09/2023,08:52:18,0.546,1.0,0.562,0.009
15/09/2023,08:53:18,0.551,1.0,0.571,0.009
15/09/2023,08:54:19,0.559,1.0,0.581,0.01
15/09/2023,08:55:19,0.563,1.0,0.59,0.009
15/09/2023,08:56:19,0.566,1.0,0.599,0.009
15/09/2023,08:57:18,0.572,1.0,0.609,0.01
15/09/2023,08:58:19,0.579,1.0,0.619,0.01
15/09/2023,08:59:19,0.584,1.0,0.628,0.009
15/09/2023,09:00:18,0.591,1.0,0.638,0.01
15/09/2023,09:01:19,0.598,1.0,0.648,0.01
15/09/2023,09:02:18,0.602,1.0,0.658,0.01
15/09/2023,09:03:19,0.607,1.0,0.668,0.01
15/09/2023,09:04:18,0.611,1.0,0.678,0.01
15/09/2023,09:05:18,0.616,1.0,0.688,0.01
15/09/2023,09:06:19,0.626,1.0,0.699,0.011
15/09/2023,09:07:18,0.637,1.0,0.709,0.01
15/09/2023,09:08:19,0.641,1.0,0.72,0.011
15/09/2023,09:09:18,0.645,1.0,0.73,0.01
15/09/2023,09:10:18,0.650,1.0,0.741,0.011
15/09/2023,09:11:19,0.655,2.0,0.752,0.011
15/09/2023,09:12:19,0.656,2.0,0.763,0.011
15/09/2023,09:13:18,0.665,2.0,0.774,0.011
15/09/2023,09:14:18,0.671,2.0,0.785,0.011
15/09/2023,09:15:18,0.677,2.0,0.796,0.011
15/09/2023,09:16:19,0.680,2.0,0.808,0.012
15/09/2023,09:17:18,0.685,2.0,0.819,0.011
15/09/2023,09:18:19,0.695,2.0,0.831,0.012
15/09/2023,09:19:19,0.702,2.0,0.842,0.011
15/09/2023,09:20:19,0.706,2.0,0.854,0.012
15/09/2023,09:21:19,0.715,2.0,0.866,0.012
15/09/2023,09:22:18,0.716,2.0,0.878,0.012
15/09/2023,09:23:19,0.697,2.0,0.89,0.012
15/09/2023,09:24:19,0.668,2.0,0.901,0.011
15/09/2023,09:25:18,0.612,1.0,0.912,0.011
15/09/2023,09:26:19,0.615,1.0,0.922,0.01
15/09/2023,09:27:17,0.664,2.0,0.933,0.011
15/09/2023,09:28:17,0.649,1.0,0.944,0.011
15/09/2023,09:29:18,0.634,1.0,0.955,0.011
15/09/2023,09:30:19,0.602,1.0,0.965,0.01
15/09/2023,09:31:19,0.596,1.0,0.975,0.01
15/09/2023,09:32:19,0.576,1.0,0.985,0.01
15/09/2023,09:33:19,0.558,1.0,0.995,0.01
15/09/2023,09:34:18,0.542,1.0,1.004,0.009
15/09/2023,09:35:19,0.533,1.0,1.013,0.009
15/09/2023,09:36:19,0.513,1.0,1.021,0.008
15/09/2023,09:37:19,0.498,1.0,1.03,0.009
15/09/2023,09:38:19,0.503,1.0,1.038,0.008
15/09/2023,09:39:18,0.539,1.0,1.047,0.009
15/09/2023,09:40:19,0.574,1.0,1.056,0.009
15/09/2023,09:41:19,0.591,1.0,1.066,0.01
15/09/2023,09:42:19,0.601,1.0,1.076,0.01
15/09/2023,09:43:17,0.657,2.0,1.086,0.01
15/09/2023,09:44:17,0.709,2.0,1.098,0.012
15/09/2023,09:45:18,0.724,2.0,1.11,0.012
15/09/2023,09:46:19,0.686,2.0,1.123,0.013
15/09/2023,09:47:18,0.640,1.0,1.134,0.011
15/09/2023,09:48:18,0.605,1.0,1.144,0.01
15/09/2023,09:49:18,0.565,1.0,1.154,0.01
15/09/2023,09:50:18,0.536,1.0,1.163,0.009
15/09/2023,09:51:19,0.512,1.0,1.172,0.009
15/09/2023,09:52:18,0.493,1.0,1.18,0.008
15/09/2023,09:53:18,0.483,1.0,1.188,0.008
15/09/2023,09:54:19,0.471,1.0,1.196,0.008
15/09/2023,09:55:17,0.470,1.0,1.204,0.008
15/09/2023,09:56:17,0.486,1.0,1.212,0.008
15/09/2023,09:57:19,0.502,1.0,1.22,0.008
15/09/2023,09:58:18,0.513,1.0,1.229,0.009
15/09/2023,09:59:19,0.519,1.0,1.237,0.008
15/09/2023,10:00:18,0.525,1.0,1.246,0.009
15/09/2023,10:01:18,0.534,1.0,1.255,0.009
15/09/2023,10:02:19,0.546,1.0,1.264,0.009
15/09/2023,10:03:18,0.558,1.0,1.273,0.009
15/09/2023,10:04:19,0.565,1.0,1.283,0.01